Dewpoint
28 24 18 17 19 19 19 18 17 16 17 18 21 22 22 22 20 22 26 31 30 32 35 54 58 59 61 64 71 74 75 77 75 72 70 69 66 67 66 68 74 76 74 73
19 16 21 20 19 16 16 17 17 20 18 16 17 21 24 24 22 21 20 22 26 27 32 52 60 60 61 65 71 75 76 77 76 73 73 71 70 65 66 69 75 72 73 75
16 12 11 12 12 14 14 15 17 16 17 16 19 20 25 23 23 23 21 22 19 26 29 52 60 63 61 66 71 74 77 78 77 75 74 75 72 71 67 68 69 75 73 74
16 14 13 14 12 12 18 17 16 16 16 14 19 16 25 24 23 23 22 20 17 23 30 50 60 62 62 63 68 74 77 78 78 78 74 75 70 68 67 68 69 71 74 74
16 13 13 14 14 14 15 14 15 17 18 18 18 17 22 24 27 22 20 22 20 23 30 48 58 61 63 63 67 73 78 79 78 78 75 73 73 68 68 68 75 77 77 74
17 16 15 14 14 17 17 17 19 20 17 21 26 27 28 24 25 25 21 22 21 22 33 48 57 61 64 64 66 71 78 79 79 79 78 77 76 74 68 70 69 75 75 75
17 15 12 12 13 14 13 14 14 16 15 17 24 25 33 31 28 24 22 23 23 23 24 44 50 60 63 65 67 70 77 78 79 79 78 79 79 78 78 79 78 73 71 77
20 18 14 14 15 16 17 17 15 18 14 20 28 25 27 32 31 24 22 24 27 25 24 26 40 54 61 62 68 70 76 78 78 78 78 79 79 73 73 76 71 70 70 69
22 22 21 20 13 16 18 20 19 17 20 13 25 28 29 28 27 23 27 32 43 52 54 54 50 44 56 63 67 69 75 77 78 77 78 79 79 78 75 78 77 72 73 68
25 24 23 21 18 17 16 16 16 18 26 25 20 24 26 35 38 37 34 40 53 56 57 58 56 53 52 53 64 69 71 76 76 74 77 77 78 78 78 78 76 74 72 71
23 26 26 25 25 26 21 21 21 17 19 19 22 20 32 31 36 34 41 50 58 62 62 62 58 54 50 47 59 66 70 73 75 75 76 77 76 77 76 75 75 72 73 73
26 27 26 20 22 27 24 28 27 21 28 23 29 21 26 28 34 40 48 55 64 65 65 67 65 62 58 56 60 63 70 73 75 76 77 76 75 75 75 75 75 72 71 72
31 27 23 23 21 32 33 35 44 29 31 33 31 33 37 32 51 56 58 60 66 66 66 68 70 70 62 62 63 65 69 70 72 75 74 73 74 74 75 74 73 72 71 71
38 29 29 22 27 29 33 31 32 31 30 29 28 35 44 46 44 54 61 63 66 67 67 68 69 69 70 71 71 72 71 70 71 72 72 74 73 74 74 73 72 71 72 72
32 34 32 29 25 23 23 23 22 24 25 26 28 29 45 55 55 59 61 63 64 65 66 67 68 67 68 69 71 71 71 71 72 73 73 75 75 74 73 71 70 70 71 71
32 33 34 31 26 24 23 22 21 23 23 25 28 33 51 54 57 58 59 61 62 63 64 65 65 67 68 69 70 70 71 71 71 70 71 72 72 70 71 71 69 74 73 71
33 32 33 30 26 23 24 24 25 29 34 34 35 45 53 55 56 57 58 58 58 60 62 64 66 64 67 66 67 67 69 71 69 69 70 69 72 71 71 73 72 72 74 73
35 39 37 31 31 24 23 32 35 33 36 43 46 52 55 57 55 57 58 58 59 59 61 63 63 65 65 64 64 66 66 66 66 69 70 68 70 71 73 73 73 74 73 74
39 39 35 31 27 26 23 48 45 37 46 49 50 52 54 56 56 57 57 59 61 60 61 62 64 64 64 65 66 66 65 65 65 66 66 67 70 71 72 72 73 73 73 72
38 44 41 37 32 30 44 44 47 45 44 50 50 52 52 54 53 57 59 60 61 62 63 63 64 62 63 65 65 65 64 64 64 65 66 67 68 71 72 73 74 76 73 72
38 43 43 41 34 34 44 44 48 39 46 49 52 53 54 53 57 61 61 60 60 61 62 62 63 62 64 65 64 62 62 62 63 64 65 65 65 66 66 70 73 73 74 71
41 45 45 44 39 38 50 45 47 53 53 52 55 56 57 58 58 60 60 61 59 60 61 61 61 62 62 63 62 62 61 62 62 63 63 64 65 66 66 64 64 69 69 69
43 44 47 46 44 50 46 49 52 54 53 53 55 56 57 57 59 59 60 60 59 59 58 58 58 60 61 62 62 61 61 62 62 62 63 63 63 64 65 65 64 64 67 63
42 42 42 42 44 46 48 52 54 53 53 56 56 58 58 57 58 59 59 59 59 58 57 57 57 58 59 60 60 61 61 61 61 61 61 62 62 61 64 64 63 65 60 60
40 42 43 41 40 42 50 52 52 52 54 56 57 58 57 56 56 56 57 57 57 58 58 58 57 57 58 59 59 60 61 61 60 60 59 59 61 63 62 63 61 59 62 58
37 40 39 37 43 47 53 56 51 53 52 50 51 52 54 56 57 57 57 57 56 56 57 57 58 57 57 57 58 59 60 61 60 60 57 56 56 57 58 63 62 54 53 50
Lifted_Index
8 8 8 7 6 6 5 5 5 3 1 -0 -1 -1 -1 -1 -1 -0 0 1 1 0 -1 -3 -5 -5 -5 -5 -7 -8 -9 -9 -9 -8 -7 -6 -5 -4 -5 -6 -6 -7 -6 -6
8 7 7 7 6 6 5 5 5 4 2 0 -0 -1 -1 -0 -0 -0 1 1 1 -0 -1 -3 -5 -5 -5 -5 -7 -8 -9 -9 -9 -8 -7 -7 -6 -5 -5 -6 -7 -7 -7 -6
7 6 6 6 6 6 5 5 4 4 2 0 -0 -1 -1 -0 -0 -0 0 1 1 0 -1 -3 -5 -6 -5 -6 -7 -9 -9 -9 -9 -8 -8 -7 -6 -5 -5 -6 -7 -7 -7 -7
6 6 6 6 6 5 5 4 4 3 1 -0 -0 -1 -1 -1 -1 -0 -0 0 0 0 -1 -3 -5 -6 -6 -6 -7 -9 -10 -10 -10 -9 -8 -8 -7 -6 -6 -6 -7 -7 -7 -7
5 5 5 5 5 5 4 4 3 2 1 -0 -0 -0 -0 -1 -1 -1 -1 -0 -0 -0 -1 -3 -5 -6 -6 -6 -7 -9 -10 -10 -10 -10 -9 -8 -7 -6 -6 -6 -7 -7 -7 -6
4 4 4 4 5 4 4 3 2 1 -0 -0 -0 -0 -0 -0 -1 -1 -1 -1 -1 -1 -1 -3 -5 -6 -7 -7 -7 -8 -10 -11 -11 -10 -10 -9 -8 -8 -7 -7 -7 -7 -6 -6
2 2 2 3 3 3 2 1 0 -0 -0 -0 -0 0 0 0 -0 -1 -1 -1 -1 -1 -1 -2 -4 -5 -6 -7 -7 -9 -10 -11 -11 -11 -10 -10 -9 -9 -8 -8 -7 -7 -6 -5
1 1 0 1 2 1 1 -0 -0 -0 -0 -0 0 0 0 0 0 -0 -1 -1 -1 -2 -2 -2 -3 -4 -6 -7 -8 -9 -10 -11 -11 -11 -10 -10 -10 -9 -9 -9 -8 -7 -6 -5
3 2 1 0 0 0 -0 -0 -0 -0 -0 -0 0 1 1 0 0 -0 -0 -1 -3 -4 -5 -4 -4 -3 -4 -6 -7 -8 -10 -11 -11 -10 -10 -10 -10 -10 -9 -9 -9 -7 -6 -5
4 3 2 0 -0 -0 -0 -0 -0 -0 -1 -0 -0 0 1 0 0 0 -0 -2 -5 -7 -7 -7 -5 -4 -4 -4 -6 -7 -9 -10 -10 -10 -10 -10 -10 -10 -10 -10 -9 -8 -6 -5
4 3 2 1 -0 -0 -0 -0 -0 -0 -0 -0 -0 0 0 0 0 -0 -1 -4 -7 -8 -9 -8 -7 -5 -4 -3 -5 -6 -8 -9 -9 -10 -10 -10 -10 -10 -10 -10 -9 -8 -6 -6
4 3 2 1 0 -0 -0 -0 -0 -0 -1 -0 -0 -0 0 0 -1 -3 -4 -6 -8 -9 -9 -9 -8 -6 -5 -4 -5 -6 -7 -8 -9 -10 -10 -10 -10 -10 -10 -10 -9 -8 -7 -7
4 3 2 1 0 -0 -0 -0 -0 -1 -1 -1 -0 -0 0 0 -2 -5 -6 -8 -9 -9 -9 -9 -8 -7 -7 -6 -6 -6 -7 -8 -9 -9 -10 -9 -9 -9 -9 -9 -8 -7 -7 -7
4 3 2 1 1 0 -0 -0 -0 -0 -1 -1 -1 -0 -1 -1 -3 -6 -8 -9 -9 -9 -8 -8 -7 -7 -7 -7 -7 -7 -8 -8 -9 -9 -9 -9 -9 -9 -8 -7 -7 -7 -7 -8
3 3 2 2 1 0 -0 -0 -0 -0 -0 -1 -1 -1 -2 -4 -5 -7 -8 -8 -8 -8 -7 -7 -6 -6 -6 -7 -7 -7 -8 -8 -8 -8 -9 -9 -9 -8 -7 -6 -6 -6 -7 -8
3 2 2 1 1 0 -0 -0 -0 -0 -1 -1 -1 -2 -4 -5 -6 -7 -7 -7 -7 -6 -6 -6 -6 -5 -5 -5 -6 -6 -6 -7 -7 -6 -6 -7 -7 -7 -7 -7 -7 -7 -8 -8
2 2 1 1 1 0 -0 -1 -1 -1 -1 -1 -2 -3 -4 -5 -6 -5 -5 -5 -6 -6 -6 -6 -5 -4 -4 -4 -3 -4 -5 -5 -5 -4 -4 -4 -5 -6 -7 -7 -8 -8 -8 -8
1 1 0 -0 0 0 -0 -1 -1 -2 -2 -2 -2 -3 -4 -4 -4 -5 -5 -5 -5 -5 -5 -5 -5 -4 -3 -2 -2 -3 -3 -3 -4 -3 -3 -3 -4 -5 -7 -7 -8 -8 -8 -8
-0 -1 -1 -1 -1 -1 -1 -2 -2 -2 -2 -2 -2 -3 -3 -4 -4 -4 -4 -4 -5 -5 -5 -5 -4 -3 -3 -2 -2 -2 -3 -3 -3 -3 -3 -3 -4 -5 -7 -7 -7 -8 -7 -7
-2 -2 -2 -2 -2 -2 -2 -3 -3 -3 -3 -2 -2 -2 -3 -3 -3 -3 -4 -4 -4 -4 -4 -4 -3 -3 -3 -2 -2 -2 -2 -2 -1 -1 -2 -2 -3 -4 -5 -6 -7 -7 -7 -7
-2 -2 -2 -2 -2 -2 -2 -3 -3 -3 -3 -2 -2 -2 -2 -3 -3 -4 -4 -4 -4 -4 -3 -3 -3 -3 -2 -2 -2 -1 -1 -0 0 0 0 0 -1 -2 -3 -3 -4 -5 -6 -7
-2 -2 -3 -2 -2 -1 -2 -2 -3 -3 -3 -3 -2 -2 -2 -3 -4 -4 -4 -4 -3 -3 -3 -2 -2 -2 -2 -2 -1 -1 0 1 2 2 2 2 2 1 0 0 -0 -2 -5 -5
-1 -2 -2 -2 -2 -2 -2 -3 -3 -4 -4 -3 -3 -3 -3 -3 -3 -3 -3 -3 -2 -2 -2 -1 -1 -1 -1 -1 -1 -0 0 1 2 3 3 3 3 3 2 2 1 -0 -2 -3
-1 -1 -1 -1 -1 -1 -2 -3 -3 -3 -3 -3 -3 -3 -3 -3 -3 -2 -2 -1 -1 -1 -1 -0 -0 0 0 -0 -0 -0 0 1 2 3 3 4 4 3 2 1 1 0 -0 -1
-1 -1 -1 -1 -0 -1 -2 -2 -3 -3 -3 -3 -3 -2 -2 -1 -1 -1 -0 -0 0 0 0 1 1 1 1 1 0 0 0 1 1 2 2 3 3 2 1 1 1 0 0 1
-1 -1 -1 -0 0 -0 -1 -2 -2 -2 -2 -2 -2 -1 -0 -0 -0 -0 0 1 1 1 1 1 1 1 1 1 1 1 0 0 1 1 1 2 2 2 2 1 0 0 1 2